Coldwater, MI

7:55 AM EDT on April 23, 2018 (GMT -0400)
Branch County Memorial

Weather History for KOEB - November, 2012

Change the Weather History Date:

Tuesday, November 20, 2012

  Actual Average (KJYM) Record (KJYM)
Temperature  
Mean Temperature 45 °F -  
Max Temperature 55 °F 45 °F 66 °F (1953)
Min Temperature 35 °F 29 °F 7 °F (1951)
Degree Days  
Heating Degree Days 20    
Moisture  
Dew Point 37 °F    
Average Humidity 73    
Maximum Humidity 96    
Minimum Humidity 48    
Precipitation  
Precipitation 0.00 in - - ()
Sea Level Pressure  
Sea Level Pressure 30.11 in    
Wind  
Wind Speed 3 mph (SSE)    
Max Wind Speed 7 mph    
Max Gust Speed -    
Visibility 8 miles    
Events Rain    
Averages and records for this station are not official NWS values.
T = Trace of Precipitation, MM = Missing Value Source: NWS Daily Summary

Daily Weather History Graph

Daily Weather History Graph

Search for Another Location

Airport or City:

Astronomy

Nov. 20, 2012 Rise Set
Actual Time 7:36 AM EST 5:14 PM EST
Civil Twilight 7:06 AM EST 5:45 PM EST
Nautical Twilight 6:32 AM EST 6:19 PM EST
Astronomical Twilight 5:58 AM EST 6:52 PM EST
Moon 1:07 PM EST (11/20) No Moon Set
Length of Visible Light 10h 39m
Length of Day
9h 38m
Waxing Crescent, 51% of the Moon is Illuminated
Nov 20
Waxing Crescent
Nov 28
Full
Dec 6
Last Quarter
Dec 13
New
Dec 20
First Quarter

Hourly Weather History & Observations

Time (EST) Temp. Windchill Dew Point Humidity Pressure Visibility Wind Dir Wind Speed Gust Speed Precip Events Conditions
12:14 AM 45.3 °F 42.3 °F 34.0 °F 65% 30.15 in 10.0 mi SSE 5.8 mph - N/A   Mostly Cloudy
12:35 AM 45.3 °F 42.3 °F 34.0 °F 65% 30.14 in 10.0 mi SSE 5.8 mph - N/A   Overcast
12:54 AM 45.0 °F 43.5 °F 34.2 °F 66% 30.14 in 10.0 mi South 3.5 mph - N/A   Overcast
1:14 AM 45.1 °F 43.7 °F 34.2 °F 65% 30.13 in 10.0 mi SSE 3.5 mph - N/A   Overcast
1:34 AM 44.8 °F 41.6 °F 34.7 °F 68% 30.13 in 10.0 mi SSE 5.8 mph - N/A   Overcast
1:54 AM 45.9 °F 42.3 °F 34.3 °F 64% 30.12 in 10.0 mi SSE 6.9 mph - N/A   Overcast
2:15 AM 45.1 °F - 34.2 °F 65% 30.13 in 10.0 mi Calm Calm - N/A   Overcast
2:34 AM 45.3 °F - 34.0 °F 65% 30.13 in 10.0 mi Calm Calm - N/A   Overcast
2:54 AM 45.0 °F - 34.2 °F 66% 30.13 in 10.0 mi Calm Calm - N/A   Overcast
3:15 AM 45.1 °F - 34.3 °F 66% 30.13 in 10.0 mi Calm Calm - N/A   Overcast
3:34 AM 43.3 °F - 35.1 °F 73% 30.13 in 10.0 mi Calm Calm - N/A   Overcast
3:54 AM 41.9 °F - 35.2 °F 77% 30.12 in 10.0 mi Calm Calm - N/A   Overcast
4:15 AM 42.1 °F - 34.9 °F 76% 30.12 in 10.0 mi Calm Calm - N/A   Overcast
4:34 AM 40.6 °F - 34.7 °F 79% 30.12 in 10.0 mi Calm Calm - N/A   Scattered Clouds
4:54 AM 40.5 °F - 35.1 °F 81% 30.12 in 10.0 mi Calm Calm - N/A   Scattered Clouds
5:15 AM 39.4 °F - 34.5 °F 83% 30.12 in 10.0 mi Calm Calm - N/A   Mostly Cloudy
5:34 AM 39.2 °F 35.9 °F 35.6 °F 87% 30.11 in 10.0 mi ESE 4.6 mph - N/A   Overcast
5:54 AM 39.6 °F - 35.8 °F 86% 30.12 in 10.0 mi Calm Calm - N/A   Overcast
6:15 AM 40.1 °F - 36.1 °F 86% 30.12 in 10.0 mi Calm Calm - N/A   Overcast
6:34 AM 40.1 °F - 36.1 °F 86% 30.12 in 10.0 mi Calm Calm - N/A   Overcast
6:55 AM 40.5 °F 37.3 °F 36.0 °F 84% 30.11 in 10.0 mi SE 4.6 mph - N/A   Overcast
7:15 AM 39.9 °F 37.8 °F 35.6 °F 85% 30.11 in 10.0 mi SE 3.5 mph - N/A   Overcast
7:34 AM 40.5 °F 37.3 °F 35.6 °F 83% 30.11 in 10.0 mi SE 4.6 mph - N/A   Overcast
7:55 AM 41.2 °F 38.2 °F 36.0 °F 82% 30.12 in 7.0 mi SE 4.6 mph - N/A   Overcast
8:14 AM 43.0 °F 41.3 °F 35.6 °F 75% 30.12 in 7.0 mi SE 3.5 mph - N/A   Overcast
8:34 AM 43.0 °F 40.3 °F 36.5 °F 78% 30.12 in 7.0 mi SE 4.6 mph - N/A   Overcast
8:55 AM 43.7 °F - 37.2 °F 78% 30.12 in 7.0 mi North - - N/A   Overcast
9:14 AM 45.5 °F - 36.3 °F 70% 30.12 in 7.0 mi Calm Calm - N/A   Overcast
9:34 AM 45.9 °F 43.6 °F 36.7 °F 70% 30.12 in 7.0 mi SE 4.6 mph - N/A   Overcast
9:55 AM 47.3 °F - 37.4 °F 68% 30.12 in 7.0 mi SE 3.5 mph - N/A   Overcast
10:14 AM 49.3 °F - 37.6 °F 64% 30.12 in 10.0 mi SW 4.6 mph - N/A   Overcast
10:34 AM 49.5 °F - 39.7 °F 69% 30.12 in 7.0 mi SE 3.5 mph - N/A   Overcast
10:55 AM 49.3 °F - 39.6 °F 69% 30.12 in 7.0 mi SSE 3.5 mph - N/A   Overcast
11:14 AM 49.5 °F - 41.0 °F 73% 30.11 in 7.0 mi Calm Calm - N/A   Overcast
11:34 AM 50.5 °F - 41.4 °F 71% 30.11 in 7.0 mi Calm Calm - N/A   Overcast
11:55 AM 51.8 °F - 40.8 °F 66% 30.10 in 7.0 mi Calm Calm - N/A   Overcast
12:14 PM 52.7 °F - 41.5 °F 66% 30.10 in 10.0 mi Calm Calm - N/A   Overcast
12:34 PM 54.0 °F - 41.4 °F 62% 30.09 in 10.0 mi SSE 3.5 mph - N/A   Overcast
12:55 PM 54.3 °F - 38.8 °F 56% 30.08 in 10.0 mi SSE 5.8 mph - N/A   Overcast
1:14 PM 54.5 °F - 38.5 °F 55% 30.07 in 10.0 mi SSE 3.5 mph - N/A   Overcast
1:34 PM 54.5 °F - 36.7 °F 51% 30.07 in 10.0 mi South 4.6 mph - N/A   Overcast
1:55 PM 55.0 °F - 35.8 °F 48% 30.07 in 10.0 mi South 5.8 mph - N/A   Overcast
2:14 PM 55.4 °F - 37.4 °F 51% 30.07 in 10.0 mi Calm Calm - N/A   Overcast
2:35 PM 55.4 °F - 37.0 °F 50% 30.07 in 10.0 mi South 4.6 mph - N/A   Overcast
2:54 PM 54.5 °F - 37.4 °F 52% 30.06 in 10.0 mi South 3.5 mph - N/A   Overcast
3:14 PM 53.8 °F - 37.9 °F 55% 30.07 in 10.0 mi SSW 4.6 mph - N/A   Overcast
3:35 PM 52.7 °F - 38.7 °F 59% 30.08 in 10.0 mi SW 5.8 mph - N/A   Overcast
3:54 PM 52.2 °F - 39.9 °F 63% 30.08 in 7.0 mi Calm Calm - N/A   Overcast
4:14 PM 52.2 °F - 40.1 °F 64% 30.08 in 10.0 mi Calm Calm - N/A   Overcast
4:35 PM 51.8 °F - 40.1 °F 64% 30.09 in 7.0 mi Calm Calm - N/A Rain Light Rain
4:54 PM 50.7 °F - 40.6 °F 68% 30.08 in 10.0 mi Calm Calm - N/A   Overcast
5:14 PM 50.7 °F - 41.0 °F 69% 30.09 in 10.0 mi Calm Calm - N/A   Overcast
5:35 PM 49.3 °F - 40.8 °F 73% 30.10 in 10.0 mi SW 3.5 mph - N/A   Overcast
5:54 PM 48.7 °F - 41.9 °F 77% 30.11 in 10.0 mi Calm Calm - N/A   Overcast
6:14 PM 48.2 °F - 41.5 °F 78% 30.11 in 10.0 mi Calm Calm - N/A   Overcast
6:35 PM 47.8 °F - 41.9 °F 80% 30.11 in 10.0 mi Calm Calm - N/A   Overcast
6:54 PM 46.9 °F - 40.3 °F 78% 30.12 in 10.0 mi Calm Calm - N/A   Mostly Cloudy
7:14 PM 47.3 °F - 39.9 °F 76% 30.12 in 10.0 mi Calm Calm - N/A   Overcast
7:35 PM 46.9 °F - 39.6 °F 76% 30.13 in 10.0 mi Calm Calm - N/A   Overcast
7:54 PM 46.2 °F 45.0 °F 38.8 °F 75% 30.13 in 10.0 mi NW 3.5 mph - N/A   Scattered Clouds
8:15 PM 44.4 °F - 38.8 °F 81% 30.13 in 7.0 mi Calm Calm - N/A   Mostly Cloudy
8:34 PM 43.9 °F - 38.1 °F 80% 30.13 in 7.0 mi Calm Calm - N/A   Scattered Clouds
8:54 PM 40.3 °F - 36.9 °F 88% 30.13 in 7.0 mi Calm Calm - N/A   Scattered Clouds
9:15 PM 40.3 °F - 37.0 °F 88% 30.13 in 7.0 mi Calm Calm - N/A   Scattered Clouds
9:34 PM 39.6 °F - 37.4 °F 92% 30.14 in 5.0 mi Calm Calm - N/A   Clear
9:54 PM 39.6 °F - 37.6 °F 93% 30.14 in 5.0 mi Calm Calm - N/A   Clear
10:15 PM 37.4 °F - 35.8 °F 94% 30.14 in 4.0 mi Calm Calm - N/A   Clear
10:34 PM 37.0 °F - 35.4 °F 94% 30.15 in 3.0 mi Calm Calm - N/A   Clear
10:54 PM 36.3 °F - 35.1 °F 95% 30.14 in 3.0 mi Calm Calm - N/A   Clear
11:15 PM 35.4 °F - 34.0 °F 94% 30.14 in 1.8 mi Calm Calm - N/A   Mist
11:34 PM 35.6 °F - 34.5 °F 96% 30.15 in 1.5 mi Calm Calm - N/A   Mist
11:55 PM 36.1 °F - 35.1 °F 96% 30.15 in 1.8 mi Calm Calm - N/A   Mist